Погода в Верхнем Карачане

Россия / Воронежская область     51°24′30″N   41°46′08″E
темп.,
°C
ветер,
м/с
пор.,
м/с
влажн.,
%
обл.,
%
осадки,
мм/ч
давл.,
гПа
погр.,
м
9 марта, вт
вт900:00−10сз22900 0.0 100921
03:00−11сз22890 0.0 100921
06:00−12ссз229025 0.0 101021
09:00−9с239560 0.1 1011153
12:00−6ссз3489100 0.3 1012474
15:00−7ссз5790100 0.4 1014582
18:00−12сз479275 0.0 1015124
21:00−15сз489672 0.0 1018150
10 марта, ср
ср1000:00−17сз479645 0.0 1020127
03:00−18сз479727 0.0 1021137
06:00−20сз479957 0.0 1022137
09:00−18сз599364 0.0 1024353
12:00−16сз588869 0.0 1026540
15:00−15сз588778 0.0 1026548
18:00−19сз349461 0.0 102771
21:00−22ссз359531 0.0 102992
11 марта, чт
чт1100:00−24ссз34970 0.0 103056
03:00−24ссз34970 0.0 103239
06:00−25ссз33970 0.0 103332
09:00−21ссз23930 0.0 1034129
12:00−16ссз23800 0.0 1034357
15:00−14сз348214 0.0 1034513
18:00−18ссз339448 0.0 103321
21:00−21с239424 0.0 103420
12 марта, пт
пт1200:00−22с12940 0.0 103520
03:00−22с11960 0.0 103520
06:00−22с22940 0.0 103620
09:00−18всв11860 0.0 103773
12:00−13юв01780 0.0 1036259
15:00−11всв11780 0.0 1035320
18:00−14вюв22914 0.0 103520
21:00−16юв34922 0.0 103639
13 марта, сб
сб1300:00−17ююв34910 0.0 103644
03:00−16ююв44940 0.0 103568
06:00−15ююв479223 0.0 103491
09:00−10ю5118262 0.0 1034364
12:00−6ю6107486 0.0 1033815
15:00−5ю6107193 0.0 1031894
18:00−6ю51075100 0.0 1030232
21:00−8ю4977100 0.0 1029196